Regional Weather Roundup
Issued by NWS State College, PA

Home | Current Version | Previous Version | Text Only | Print | Product List | Glossary Off
Versions: 1 2 3 4 5 6 7 8 9 10 11 12 13 14 15 16 17 18 19 20 21 22 23 24 25 26 27 28 29 30 31 32 33 34 35 36 37 38 39 40 41 42 43 44 45 46 47 48 49 50

196
ASUS41 KCTP 101110
RWRCTP

REGIONAL WEATHER ROUNDUP
NATIONAL WEATHER SERVICE STATE COLLEGE PA
600 AM EST SAT DEC 10 2016

Note: "fair" indicates few or no clouds below 12,000 feet with no
significant weather and/or obstructions to visibility.

* = STATION THAT DOES NOT REPORT PRECIPITATION /E.G. RAIN...SNOW...ETC/
    THUNDER OR FOG.

PAZ002>004-007>009-013>016-020>023-029>032-101200-
WESTERN PENNSYLVANIA

CITY           SKY/WX    TMP DP  RH WIND       PRES   REMARKS
ERIE           CLOUDY    26  20  77 SW10      30.36R
MEADVILLE      LGT SNOW  21  16  81 SW8       30.34R WCI  11
FRANKLIN*        N/A     21  10  63 W9G17     30.36R WCI  11
NEW CASTLE     CLOUDY    24  17  74 SW10      30.41R WCI  14
BEAVER COUNTY  NOT AVBL
BUTLER*        CLOUDY    23  16  74 SW8G17    30.42S WCI  14
PITTSBURGH INT FLURRIES  25  19  78 W9        30.43R
PITTSBURGH     LGT SNOW  23  17  78 SW13      30.43R WCI  11
INDIANA*       CLOUDY    23  18  80 W13       30.41R WCI  11
LATROBE        FLURRIES  23  19  86 SW10      30.44R WCI  12
WASHINGTON CO* CLOUDY    23  16  74 SW9       30.45R WCI  13
$$

PAZ004>006-010>012-017>019-024>028-033>037-041-042-045-046-049>053-101200-
CENTRAL PENNSYLVANIA

CITY           SKY/WX    TMP DP  RH WIND       PRES   REMARKS
BRADFORD       CLOUDY    21  17  84 W7        30.25S WCI  12
DUBOIS         CLOUDY    21  15  78 W12       30.31S WCI   9
CLEARFIELD     FLURRIES  23  19  85 SW9       30.34R WCI  13
JOHNSTOWN      LGT SNOW  19  17  92 W8        30.32R FOG     WCI   9
ALTOONA        FLURRIES  24  18  77 W9        30.37S WCI  14
STATE COLLEGE  FLURRIES  25  18  74 W12       30.35S WCI  14
WILLIAMSPORT   CLOUDY    28  20  71 W10       30.36R
SELINSGROVE    PTCLDY    27  21  78 W8        30.39R
FT INDIANTOWN  PTCLDY    28  17  64 W12       30.39R
CAPITAL CITY   CLEAR     27  16  63 W10       30.41R
HARRISBURG     MOCLDY    29  19  66 W12       30.41R
YORK           PTCLDY    26  18  71 W6        30.41R
$$

PAZ038>040-043-044-047-048-054-055-060>062-067>071-101200-
EASTERN PENNSYLVANIA

CITY           SKY/WX    TMP DP  RH WIND       PRES   REMARKS
SCRANTON       CLOUDY    26  21  81 W6        30.30S
MOUNT POCONO   CLOUDY    20  15  81 NW7       30.23R WCI  11
ALLENTOWN      CLOUDY    28  19  69 W9        30.36R
QUAKERTOWN*    MOSUNNY   27  18  69 W5        30.37R
READING        PTCLDY    28  16  60 W10       30.38R
LANCASTER      PTCLDY    25  18  74 W9        30.41R
COATESVILLE    SUNNY     25  18  74 W6        30.40R
POTTSTOWN      PTCLDY    25  17  72 CALM      30.40R
BLUE BELL      PTCLDY    27  19  74 CALM      30.39R
DOYLESTOWN     MOCLDY    29  19  66 W7        30.36R
WILLOW GROVE   NOT AVBL
NORTH PHILA    CLEAR     27  18  69 W7        30.41R
PHILADELPHIA   PTCLDY    27  17  66 W7        30.43R
$$




USA.gov is the U.S. government's official web portal to all federal, state and local government web resources and services.